Time,TemperatureF,DewpointF,PressureIn,WindDirection,WindDirectionDegrees,WindSpeedMPH,WindSpeedGustMPH,Humidity,HourlyPrecipIn,Conditions,Clouds,dailyrainin,SoftwareType,DateUTC
2013-06-30 00:10:00,74.3,72.1,29.70,South,180,0.0,-999.0,93,-99.99,,,0.00,Acu-Link.com,2013-06-30 05:10:00,
2013-06-30 00:25:00,73.8,71.6,29.70,SW,225,0.0,-999.0,93,-99.99,,,0.00,Acu-Link.com,2013-06-30 05:25:00,
2013-06-30 00:40:00,73.4,71.9,29.70,SSW,202,0.0,-999.0,95,-99.99,,,0.00,Acu-Link.com,2013-06-30 05:40:00,
2013-06-30 00:55:00,72.7,71.2,29.70,NE,45,0.0,-999.0,95,-99.99,,,0.00,Acu-Link.com,2013-06-30 05:55:00,
2013-06-30 01:11:00,72.5,71.6,29.70,WNW,292,0.0,-999.0,97,-99.99,,,0.00,Acu-Link.com,2013-06-30 06:11:00,
2013-06-30 01:26:00,72.5,71.6,29.70,North,0,0.0,-999.0,97,-99.99,,,0.00,Acu-Link.com,2013-06-30 06:26:00,
2013-06-30 01:41:00,72.3,71.4,29.70,WNW,292,1.6,-999.0,97,-99.99,,,0.00,Acu-Link.com,2013-06-30 06:41:00,
2013-06-30 01:56:00,72.1,71.2,29.70,NNW,337,0.0,-999.0,97,-99.99,,,0.00,Acu-Link.com,2013-06-30 06:56:00,
2013-06-30 02:12:00,72.0,71.4,29.70,NNE,22,1.6,-999.0,98,-99.99,,,0.00,Acu-Link.com,2013-06-30 07:12:00,
2013-06-30 02:27:00,72.0,71.4,29.69,ENE,67,1.1,-999.0,98,-99.99,,,0.00,Acu-Link.com,2013-06-30 07:27:00,
2013-06-30 02:42:00,72.9,72.6,29.69,West,270,1.1,-999.0,99,-99.99,,,0.00,Acu-Link.com,2013-06-30 07:42:00,
2013-06-30 02:57:00,73.0,72.7,29.69,NW,315,4.3,-999.0,99,-99.99,,,0.00,Acu-Link.com,2013-06-30 07:57:00,
2013-06-30 03:13:00,73.2,72.0,29.68,NNW,337,4.7,-999.0,96,-99.99,,,0.00,Acu-Link.com,2013-06-30 08:13:00,
2013-06-30 03:28:00,73.4,71.9,29.68,North,0,3.8,-999.0,95,-99.99,,,0.00,Acu-Link.com,2013-06-30 08:28:00,
2013-06-30 03:43:00,73.6,71.7,29.68,NW,315,5.1,-999.0,94,-99.99,,,0.00,Acu-Link.com,2013-06-30 08:43:00,
2013-06-30 03:58:00,73.0,70.9,29.68,WNW,292,3.8,-999.0,93,-99.99,,,0.00,Acu-Link.com,2013-06-30 08:58:00,
2013-06-30 04:13:00,72.7,70.5,29.68,WNW,292,2.7,-999.0,93,-99.99,,,0.00,Acu-Link.com,2013-06-30 09:13:00,
2013-06-30 04:28:00,72.3,70.2,29.68,NW,315,2.2,-999.0,93,-99.99,,,0.00,Acu-Link.com,2013-06-30 09:28:00,
2013-06-30 04:43:00,71.6,69.8,29.69,West,270,0.0,-999.0,94,-99.99,,,0.00,Acu-Link.com,2013-06-30 09:43:00,
2013-06-30 04:59:00,70.9,69.4,29.69,WNW,292,0.0,-999.0,95,-99.99,,,0.00,Acu-Link.com,2013-06-30 09:59:00,
2013-06-30 05:14:00,70.2,69.3,29.70,NW,315,2.7,-999.0,97,-99.99,,,0.00,Acu-Link.com,2013-06-30 10:14:00,
2013-06-30 05:29:00,71.4,68.3,29.70,NNW,337,3.8,-999.0,90,-99.99,,,0.00,Acu-Link.com,2013-06-30 10:29:00,
2013-06-30 05:44:00,72.3,67.9,29.70,NW,315,2.7,-999.0,86,-99.99,,,0.00,Acu-Link.com,2013-06-30 10:44:00,
2013-06-30 06:00:00,72.1,67.7,29.71,NNW,337,2.7,-999.0,86,-99.99,,,0.00,Acu-Link.com,2013-06-30 11:00:00,
2013-06-30 06:15:00,71.2,67.5,29.71,NNW,337,1.6,-999.0,88,-99.99,,,0.00,Acu-Link.com,2013-06-30 11:15:00,
2013-06-30 06:30:00,70.5,67.8,29.71,West,270,0.0,-999.0,91,-99.99,,,0.00,Acu-Link.com,2013-06-30 11:30:00,
2013-06-30 06:45:00,70.2,67.1,29.71,South,180,0.0,-999.0,90,-99.99,,,0.00,Acu-Link.com,2013-06-30 11:45:00,
2013-06-30 07:01:00,70.0,67.9,29.71,SW,225,0.0,-999.0,93,-99.99,,,0.00,Acu-Link.com,2013-06-30 12:01:00,
2013-06-30 07:16:00,70.3,67.9,29.71,WSW,247,0.0,-999.0,92,-99.99,,,0.00,Acu-Link.com,2013-06-30 12:16:00,
2013-06-30 07:31:00,71.8,67.7,29.71,West,270,1.6,-999.0,87,-99.99,,,0.00,Acu-Link.com,2013-06-30 12:31:00,
2013-06-30 07:47:00,73.2,68.1,29.71,West,270,1.6,-999.0,84,-99.99,,,0.00,Acu-Link.com,2013-06-30 12:47:00,
2013-06-30 08:02:00,75.0,68.8,29.71,NE,45,2.2,-999.0,81,-99.99,,,0.00,Acu-Link.com,2013-06-30 13:02:00,
2013-06-30 08:17:00,78.3,68.9,29.72,West,270,3.1,-999.0,73,-99.99,,,0.00,Acu-Link.com,2013-06-30 13:17:00,
2013-06-30 08:32:00,79.2,69.3,29.72,West,270,3.8,-999.0,72,-99.99,,,0.00,Acu-Link.com,2013-06-30 13:32:00,
2013-06-30 08:47:00,81.5,69.5,29.73,WNW,292,6.7,-999.0,67,-99.99,,,0.00,Acu-Link.com,2013-06-30 13:47:00,
2013-06-30 09:02:00,82.4,69.0,29.72,WNW,292,4.3,-999.0,64,-99.99,,,0.00,Acu-Link.com,2013-06-30 14:02:00,
2013-06-30 09:18:00,83.3,69.8,29.73,WNW,292,4.7,-999.0,64,-99.99,,,0.00,Acu-Link.com,2013-06-30 14:18:00,
2013-06-30 09:33:00,85.1,70.1,29.73,West,270,2.7,-999.0,61,-99.99,,,0.00,Acu-Link.com,2013-06-30 14:33:00,
2013-06-30 09:48:00,87.4,68.7,29.73,NW,315,6.3,-999.0,54,-99.99,,,0.00,Acu-Link.com,2013-06-30 14:48:00,
2013-06-30 10:04:00,88.7,69.3,29.72,East,90,3.8,-999.0,53,-99.99,,,0.00,Acu-Link.com,2013-06-30 15:04:00,
2013-06-30 10:19:00,88.3,68.4,29.73,NW,315,6.3,-999.0,52,-99.99,,,0.00,Acu-Link.com,2013-06-30 15:19:00,
2013-06-30 10:34:00,87.8,66.8,29.72,WNW,292,7.4,-999.0,50,-99.99,,,0.00,Acu-Link.com,2013-06-30 15:34:00,
2013-06-30 10:49:00,88.5,68.0,29.72,NW,315,3.1,-999.0,51,-99.99,,,0.00,Acu-Link.com,2013-06-30 15:49:00,
2013-06-30 11:05:00,91.6,69.1,29.72,WNW,292,7.4,-999.0,48,-99.99,,,0.00,Acu-Link.com,2013-06-30 16:05:00,
2013-06-30 11:20:00,91.9,67.5,29.73,NW,315,4.7,-999.0,45,-99.99,,,0.00,Acu-Link.com,2013-06-30 16:20:00,
2013-06-30 11:35:00,92.1,66.4,29.73,WNW,292,4.3,-999.0,43,-99.99,,,0.00,Acu-Link.com,2013-06-30 16:35:00,
2013-06-30 11:50:00,93.2,65.2,29.73,NW,315,6.3,-999.0,40,-99.99,,,0.00,Acu-Link.com,2013-06-30 16:50:00,
2013-06-30 12:06:00,92.8,64.2,29.73,NNE,22,3.8,-999.0,39,-99.99,,,0.00,Acu-Link.com,2013-06-30 17:06:00,
2013-06-30 12:21:00,91.8,63.2,29.74,WNW,292,9.4,-999.0,39,-99.99,,,0.00,Acu-Link.com,2013-06-30 17:21:00,
2013-06-30 12:36:00,93.9,62.1,29.73,North,0,7.8,-999.0,35,-99.99,,,0.00,Acu-Link.com,2013-06-30 17:36:00,
2013-06-30 12:51:00,95.0,64.6,29.72,NNE,22,6.3,-999.0,37,-99.99,,,0.00,Acu-Link.com,2013-06-30 17:51:00,
2013-06-30 13:07:00,94.8,65.9,29.72,North,0,9.4,-999.0,39,-99.99,,,0.00,Acu-Link.com,2013-06-30 18:07:00,
2013-06-30 13:22:00,93.2,63.8,29.72,West,270,4.7,-999.0,38,-99.99,,,0.00,Acu-Link.com,2013-06-30 18:22:00,
2013-06-30 13:37:00,91.2,66.2,29.71,WNW,292,5.8,-999.0,44,-99.99,,,0.00,Acu-Link.com,2013-06-30 18:37:00,
2013-06-30 13:52:00,91.0,66.7,29.72,West,270,5.8,-999.0,45,-99.99,,,0.00,Acu-Link.com,2013-06-30 18:52:00,
2013-06-30 14:08:00,89.8,64.9,29.72,WNW,292,3.8,-999.0,44,-99.99,,,0.00,Acu-Link.com,2013-06-30 19:08:00,
2013-06-30 14:23:00,91.8,64.0,29.71,NW,315,4.7,-999.0,40,-99.99,,,0.00,Acu-Link.com,2013-06-30 19:23:00,
2013-06-30 14:38:00,90.1,65.9,29.71,NW,315,5.1,-999.0,45,-99.99,,,0.00,Acu-Link.com,2013-06-30 19:38:00,
2013-06-30 14:54:00,90.5,64.2,29.70,NW,315,8.3,-999.0,42,-99.99,,,0.00,Acu-Link.com,2013-06-30 19:54:00,
2013-06-30 15:09:00,94.8,66.7,29.71,WNW,292,6.3,-999.0,40,-99.99,,,0.00,Acu-Link.com,2013-06-30 20:09:00,
2013-06-30 15:24:00,93.4,65.4,29.71,WSW,247,6.3,-999.0,40,-99.99,,,0.00,Acu-Link.com,2013-06-30 20:24:00,
2013-06-30 15:39:00,93.6,68.3,29.70,WSW,247,3.8,-999.0,44,-99.99,,,0.00,Acu-Link.com,2013-06-30 20:39:00,
2013-06-30 15:55:00,92.5,68.0,29.70,WNW,292,4.7,-999.0,45,-99.99,,,0.00,Acu-Link.com,2013-06-30 20:55:00,
2013-06-30 16:10:00,95.0,68.3,29.70,WNW,292,8.9,-999.0,42,-99.99,,,0.00,Acu-Link.com,2013-06-30 21:10:00,
2013-06-30 16:25:00,92.7,64.8,29.70,West,270,6.3,-999.0,40,-99.99,,,0.00,Acu-Link.com,2013-06-30 21:25:00,
2013-06-30 16:40:00,93.6,65.6,29.70,NW,315,5.1,-999.0,40,-99.99,,,0.00,Acu-Link.com,2013-06-30 21:40:00,
2013-06-30 16:56:00,95.7,66.7,29.70,WNW,292,6.3,-999.0,39,-99.99,,,0.00,Acu-Link.com,2013-06-30 21:56:00,
2013-06-30 17:11:00,95.5,65.1,29.69,NW,315,5.8,-999.0,37,-99.99,,,0.00,Acu-Link.com,2013-06-30 22:11:00,
2013-06-30 17:26:00,95.7,63.6,29.68,NNW,337,8.3,-999.0,35,-99.99,,,0.00,Acu-Link.com,2013-06-30 22:26:00,
2013-06-30 17:42:00,93.6,64.1,29.69,North,0,6.7,-999.0,38,-99.99,,,0.00,Acu-Link.com,2013-06-30 22:42:00,
2013-06-30 17:57:00,90.7,64.4,29.69,NE,45,4.3,-999.0,42,-99.99,,,0.00,Acu-Link.com,2013-06-30 22:57:00,
2013-06-30 18:12:00,92.5,64.6,29.68,NW,315,3.1,-999.0,40,-99.99,,,0.00,Acu-Link.com,2013-06-30 23:12:00,
2013-06-30 18:27:00,92.3,65.8,29.68,ENE,67,4.3,-999.0,42,-99.99,,,0.00,Acu-Link.com,2013-06-30 23:27:00,
2013-06-30 18:42:00,91.6,65.9,29.68,NE,45,5.1,-999.0,43,-99.99,,,0.00,Acu-Link.com,2013-06-30 23:42:00,
2013-06-30 18:58:00,90.7,66.4,29.68,East,90,3.8,-999.0,45,-99.99,,,0.00,Acu-Link.com,2013-06-30 23:58:00,
2013-06-30 19:13:00,90.7,67.0,29.69,West,270,2.2,-999.0,46,-99.99,,,0.00,Acu-Link.com,2013-07-01 00:13:00,
2013-06-30 19:28:00,90.5,68.1,29.69,NNE,22,2.7,-999.0,48,-99.99,,,0.00,Acu-Link.com,2013-07-01 00:28:00,
2013-06-30 19:44:00,88.5,66.9,29.70,NNE,22,2.7,-999.0,49,-99.99,,,0.00,Acu-Link.com,2013-07-01 00:44:00,
2013-06-30 19:59:00,86.7,70.6,29.70,WNW,292,0.0,-999.0,59,-99.99,,,0.00,Acu-Link.com,2013-07-01 00:59:00,
2013-06-30 20:14:00,81.7,69.2,29.71,WNW,292,0.0,-999.0,66,-99.99,,,0.00,Acu-Link.com,2013-07-01 01:14:00,
2013-06-30 20:30:00,79.7,69.9,29.71,NW,315,0.0,-999.0,72,-99.99,,,0.00,Acu-Link.com,2013-07-01 01:30:00,
2013-06-30 20:45:00,77.7,69.9,29.71,NE,45,0.0,-999.0,77,-99.99,,,0.00,Acu-Link.com,2013-07-01 01:45:00,
2013-06-30 21:00:00,76.1,69.8,29.72,WNW,292,0.0,-999.0,81,-99.99,,,0.00,Acu-Link.com,2013-07-01 02:00:00,
2013-06-30 21:15:00,75.4,69.5,29.72,NNE,22,1.6,-999.0,82,-99.99,,,0.00,Acu-Link.com,2013-07-01 02:15:00,
2013-06-30 21:30:00,74.8,69.0,29.73,NNW,337,1.6,-999.0,82,-99.99,,,0.00,Acu-Link.com,2013-07-01 02:30:00,
2013-06-30 21:45:00,74.5,69.3,29.73,NNE,22,0.0,-999.0,84,-99.99,,,0.00,Acu-Link.com,2013-07-01 02:45:00,
2013-06-30 22:01:00,73.4,68.9,29.74,NW,315,0.0,-999.0,86,-99.99,,,0.00,Acu-Link.com,2013-07-01 03:01:00,
2013-06-30 22:16:00,73.0,68.6,29.75,North,0,0.0,-999.0,86,-99.99,,,0.00,Acu-Link.com,2013-07-01 03:16:00,
2013-06-30 22:32:00,72.7,68.9,29.74,NNW,337,0.0,-999.0,88,-99.99,,,0.00,Acu-Link.com,2013-07-01 03:32:00,
2013-06-30 22:48:00,72.0,68.2,29.75,NW,315,0.0,-999.0,88,-99.99,,,0.00,Acu-Link.com,2013-07-01 03:48:00,
2013-06-30 23:03:00,71.8,67.7,29.75,NNE,22,0.0,-999.0,87,-99.99,,,0.00,Acu-Link.com,2013-07-01 04:03:00,
2013-06-30 23:18:00,71.4,67.3,29.75,WNW,292,0.0,-999.0,87,-99.99,,,0.00,Acu-Link.com,2013-07-01 04:18:00,
2013-06-30 23:33:00,71.2,67.5,29.75,ENE,67,0.0,-999.0,88,-99.99,,,0.00,Acu-Link.com,2013-07-01 04:33:00,
2013-06-30 23:48:00,71.1,67.0,29.75,NNE,22,0.0,-999.0,87,-99.99,,,0.00,Acu-Link.com,2013-07-01 04:48:00,